Theta_e
308 309 309 309 308 307 307 307 307 307 307 307 309 310 311 310 307 305 306 308 303 298 299 301 301 296 294 292 288 292 292 294 292 288 290 289 290 291 289 291 289 287 286 286 287 285 282 299 298 291 298 301 299 300
307 308 307 307 307 307 307 306 306 306 307 307 308 310 311 311 308 306 303 305 306 297 301 306 305 304 302 300 294 294 293 291 295 290 290 292 289 291 290 285 294 287 291 290 291 292 298 302 300 303 303 298 300 299
306 306 306 306 306 307 307 306 306 306 306 308 308 309 310 310 309 306 302 302 300 295 297 298 301 305 307 306 306 291 293 295 294 297 292 290 287 292 287 289 290 294 297 292 293 296 298 300 302 301 300 301 300 300
304 305 305 305 305 305 305 304 304 304 304 306 308 309 309 310 310 307 302 302 302 297 289 296 304 301 304 304 303 302 299 299 299 295 290 289 289 295 290 292 291 293 295 293 293 296 298 298 300 301 301 301 299 299
302 303 303 304 304 304 304 303 303 303 303 305 307 309 310 310 310 307 304 303 304 297 290 292 301 302 302 302 301 301 299 295 292 289 289 289 294 294 294 293 291 296 294 293 290 296 297 297 301 302 300 298 299 298
302 302 303 303 303 303 303 303 303 303 303 304 306 308 310 310 305 303 296 302 303 302 292 288 301 299 300 300 300 297 297 295 292 289 290 293 297 293 289 289 295 298 299 301 298 301 301 301 302 302 298 299 298 295
302 302 302 303 303 303 303 303 303 303 303 303 305 308 309 307 305 299 296 302 305 303 292 288 294 298 299 300 300 296 296 293 292 291 291 294 294 294 291 288 295 296 298 300 301 301 298 299 297 299 299 298 297 298
302 302 302 303 303 303 303 303 303 303 304 304 305 308 307 304 302 299 302 303 303 296 295 287 290 293 300 296 293 298 294 293 292 293 295 292 293 293 288 295 297 298 299 300 299 300 299 299 299 299 299 298 296 295
301 302 302 303 303 303 303 303 303 304 304 305 306 305 302 301 296 298 304 303 302 298 290 288 287 288 300 296 295 294 295 290 297 291 291 291 290 288 294 296 297 298 297 297 298 299 298 296 297 297 297 296 294 294
301 301 302 303 304 304 304 303 304 304 305 306 304 297 292 297 304 304 297 292 291 291 289 287 293 288 296 294 293 289 293 291 287 291 293 289 290 297 298 299 299 298 298 298 296 294 295 295 295 294 295 295 295 294
302 302 302 303 304 304 304 304 305 305 305 300 296 292 298 304 298 295 289 287 288 286 290 290 289 288 296 288 290 291 288 293 287 290 289 290 289 296 299 297 299 299 299 298 298 298 298 296 295 294 294 296 295 294
302 302 302 303 304 304 305 305 305 303 302 300 298 300 298 294 291 287 286 288 285 286 292 291 292 291 292 296 289 290 290 291 284 293 288 288 295 298 298 297 298 298 297 297 298 297 297 297 297 296 296 295 295 295
303 302 303 303 304 305 305 305 305 303 301 299 295 290 291 289 284 283 283 286 287 293 294 294 291 294 292 291 290 291 288 288 297 288 288 294 298 297 299 298 297 297 297 297 297 297 297 298 298 297 296 296 296 294
302 302 303 303 304 305 305 305 304 302 298 291 289 284 287 284 287 290 291 294 296 297 295 294 292 291 294 290 293 288 293 293 286 285 286 296 298 298 297 296 295 295 295 296 296 297 297 296 296 297 297 297 296 293
302 302 303 303 304 305 305 305 304 301 296 289 288 285 287 294 294 296 297 295 298 300 295 292 290 291 291 290 293 291 288 285 289 290 296 298 297 296 295 295 295 293 295 296 297 296 296 296 296 296 297 298 296 294
302 302 302 304 304 304 305 304 301 300 295 290 288 288 292 292 293 294 294 295 299 298 295 292 289 287 288 290 288 287 286 285 292 298 298 298 296 296 295 295 294 295 296 296 296 296 296 295 295 295 297 297 296 294
301 299 303 303 304 304 303 298 297 292 290 287 288 292 294 295 295 298 299 298 301 294 289 289 287 287 292 288 287 293 290 295 298 297 298 297 296 296 296 295 294 295 295 295 296 296 296 297 296 296 295 296 296 294
299 303 304 303 303 299 297 296 292 288 286 289 289 293 296 297 296 297 299 301 297 292 292 289 293 289 288 286 291 295 297 299 300 298 297 297 297 297 295 295 294 295 294 295 295 297 296 294 293 294 296 296 295 293
302 303 303 303 300 295 291 292 292 287 289 292 294 296 297 297 299 299 300 301 299 297 293 292 290 290 291 295 295 298 299 299 297 297 298 298 299 297 295 295 294 295 295 294 295 296 296 295 294 295 296 295 293 291
302 302 303 301 300 292 287 289 293 290 288 293 296 295 295 296 299 298 297 298 296 293 289 289 292 296 296 298 302 302 301 300 298 296 296 298 299 298 296 295 294 294 294 295 296 293 296 296 296 296 296 294 292 290
301 301 301 300 297 295 292 291 289 291 292 291 295 293 293 296 294 294 294 298 292 289 290 295 297 299 301 301 303 304 302 301 299 299 297 296 298 299 298 296 296 295 293 294 294 294 295 296 296 297 296 295 294 292
298 300 297 298 293 292 291 294 292 293 291 291 292 293 290 291 292 294 297 291 291 292 296 297 298 300 299 299 300 302 302 302 300 297 294 295 296 296 295 295 294 294 294 294 294 294 296 297 296 296 295 295 294 293
299 297 294 294 290 289 289 296 290 290 288 289 291 289 289 290 293 296 291 292 294 299 300 299 299 300 299 299 300 301 301 300 298 297 297 297 297 297 296 295 295 294 293 294 295 295 296 291 295 295 295 295 294 293
299 293 289 289 289 287 291 289 290 289 290 289 289 288 290 291 293 290 289 292 296 300 300 300 299 297 297 298 297 298 298 299 298 297 297 296 295 295 295 295 295 295 295 296 295 295 297 296 293 295 294 293 293 292
287 288 289 286 289 287 286 287 287 288 287 289 288 289 288 292 288 289 290 292 296 298 298 299 298 297 296 296 296 295 298 298 296 295 297 297 296 295 294 295 295 295 296 295 293 293 295 296 296 295 293 292 291 291
284 287 286 287 287 286 287 285 287 287 288 288 289 291 291 290 289 288 291 293 295 296 298 297 297 296 296 297 295 294 296 299 298 296 296 297 297 296 293 293 293 293 295 295 293 291 293 295 294 294 293 292 287 291
283 285 290 294 293 291 289 291 293 290 288 287 290 288 290 287 286 289 294 294 294 295 298 299 299 298 297 296 297 297 298 299 298 297 297 296 296 296 295 294 292 293 295 294 293 292 291 293 294 294 293 293 292 292
289 290 287 289 290 292 288 288 288 288 290 294 292 288 287 285 284 287 291 294 295 297 297 296 297 298 297 296 295 296 296 297 296 296 295 295 295 296 295 295 293 283 292 290 291 292 291 292 293 293 293 292 292 293
288 291 291 288 289 290 290 288 289 293 296 292 289 286 284 285 286 287 290 293 297 297 295 293 293 294 294 295 296 296 296 296 294 292 292 292 291 292 295 295 294 294 293 292 280 284 287 289 291 292 292 293 294 294
289 292 289 288 287 288 290 291 291 293 291 290 288 287 286 286 286 290 291 293 294 294 295 295 294 294 293 292 292 292 294 295 296 296 295 293 292 293 294 293 292 292 292 291 290 290 284 288 288 291 290 291 292 292
292 292 290 289 288 290 291 292 292 292 292 290 290 287 285 286 288 288 287 290 293 294 293 292 293 295 294 294 293 291 289 291 292 293 293 293 293 293 292 292 292 291 291 290 289 288 288 288 288 288 287 287 287 288
291 290 290 287 288 292 293 290 289 289 289 289 288 289 288 288 285 286 286 288 289 288 286 290 289 289 290 291 290 290 287 291 291 291 290 290 290 289 289 289 289 289 289 288 287 286 286 286 286 285 286 285 285 286
290 291 290 289 288 288 290 290 289 288 288 287 287 287 286 286 281 285 288 287 287 287 287 288 289 289 289 288 287 287 286 287 284 281 282 281 281 284 287 288 288 287 287 286 286 285 283 282 282 282 282 283 283 284
Wind_Speed
11 9 6 1 1 4 6 6 4 5 6 7 8 8 5 9 10 4 2 3 3 2 7 8 6 6 3 4 3 4 7 3 4 4 4 3 4 0 5 5 3 5 4 5 7 6 8 4 3 5 13 14 14 19
10 6 2 2 4 6 6 6 5 6 7 8 7 8 6 3 13 6 2 2 1 2 7 9 13 12 12 11 2 4 4 1 3 3 2 4 4 4 5 4 4 4 3 2 6 2 3 4 7 10 9 13 19 20
9 7 6 5 6 7 7 6 6 5 6 6 7 8 6 6 15 12 2 4 2 2 6 4 5 5 8 11 12 4 4 4 4 2 3 2 5 4 3 4 5 3 5 7 8 2 3 7 9 6 10 17 19 20
8 9 9 7 6 5 6 6 7 6 7 8 7 7 6 6 4 13 3 3 1 1 2 1 4 5 5 7 10 13 10 3 2 2 2 3 4 4 4 5 9 10 11 9 12 9 11 5 8 15 17 18 20 20
9 10 10 8 6 7 6 8 7 7 7 8 8 8 7 6 6 7 2 3 1 1 3 5 15 1 1 5 8 10 11 5 1 1 3 3 5 4 5 5 9 6 6 5 3 8 7 13 16 19 18 21 20 20
10 9 9 9 8 8 8 8 10 8 7 9 8 9 6 1 14 3 2 4 5 2 1 4 6 3 3 3 6 8 6 3 2 2 3 3 5 4 4 6 7 8 5 7 8 10 11 16 15 18 19 19 20 20
9 9 10 10 9 8 8 10 10 9 8 9 7 8 4 12 3 2 1 3 9 3 2 4 3 6 2 3 5 4 6 3 3 3 4 5 4 5 4 10 12 5 6 7 6 9 13 15 17 16 16 18 19 20
9 9 9 9 9 9 10 10 10 8 8 8 7 6 4 13 8 2 3 10 5 2 1 3 4 5 5 2 3 4 4 3 5 3 4 3 1 4 6 8 4 4 5 7 5 9 13 15 15 15 15 16 20 20
8 8 9 9 9 10 9 9 9 8 7 6 2 17 3 1 2 2 10 8 2 2 2 3 3 2 3 3 2 2 3 4 3 4 2 2 3 7 7 7 5 6 5 7 11 13 13 15 15 15 17 19 19 21
8 8 10 10 9 8 8 8 8 8 6 16 4 2 2 2 13 12 2 2 0 1 1 3 3 5 2 2 3 2 4 2 3 4 3 3 5 12 9 6 5 4 6 8 12 12 13 14 15 17 17 17 18 20
9 8 11 10 8 7 8 8 6 1 10 2 2 2 1 8 1 2 2 3 3 4 5 5 6 6 0 4 1 2 1 3 3 4 3 3 4 2 5 2 3 6 8 9 9 10 12 13 14 15 16 18 18 20
7 9 10 10 9 6 4 6 8 4 1 3 6 4 2 2 1 3 4 4 5 4 5 5 4 5 1 1 2 3 3 2 3 5 3 3 2 4 2 1 4 8 8 10 10 11 13 13 12 14 15 17 18 19
9 10 11 10 8 7 7 6 10 14 7 2 3 3 3 3 4 6 7 5 4 4 5 5 4 3 4 3 4 4 5 4 3 3 4 1 3 0 2 5 7 6 8 9 11 12 11 12 12 14 15 16 19 18
8 8 8 7 7 8 6 10 17 9 2 2 3 5 6 6 6 5 5 1 3 3 1 1 0 3 3 4 4 4 2 3 4 4 2 2 4 5 4 5 6 8 10 9 10 11 12 12 13 13 13 16 17 18
8 8 8 9 10 8 7 9 19 2 2 3 3 5 7 4 3 3 4 3 3 2 3 2 3 3 3 4 3 3 3 4 2 2 2 4 5 4 4 6 7 8 8 8 10 11 12 12 13 13 14 15 17 16
9 8 6 9 10 10 8 13 3 2 2 2 4 3 4 5 5 6 6 5 3 3 1 2 2 3 4 3 5 4 2 3 1 1 4 4 4 4 5 6 7 7 8 8 9 11 12 12 13 13 14 15 16 16
7 3 7 12 10 8 10 4 2 4 4 4 4 5 7 5 4 2 2 4 7 4 2 3 4 4 3 4 4 2 3 1 2 4 4 5 5 5 5 6 7 7 7 8 10 10 11 12 12 13 15 16 15 15
4 4 9 9 7 6 2 1 3 3 5 4 5 6 8 6 6 4 3 4 5 4 3 3 3 5 4 4 2 3 3 3 4 5 5 6 5 4 4 6 6 7 8 9 9 10 10 11 12 10 15 16 14 15
3 5 8 13 7 4 3 3 3 3 7 3 6 7 5 6 6 7 2 5 4 3 2 3 4 4 3 2 5 3 4 5 6 6 6 6 4 4 4 5 5 6 7 8 9 9 8 10 9 10 11 12 11 12
10 8 4 16 5 3 3 2 2 3 4 4 5 5 6 6 4 6 6 6 4 2 3 3 4 3 4 2 2 1 4 6 7 7 6 5 4 4 4 5 5 6 6 6 6 6 8 8 8 9 10 10 11 13
6 5 13 3 2 1 2 3 3 3 2 4 3 4 4 5 6 6 4 5 4 3 3 7 6 4 3 2 2 2 6 6 5 3 5 5 4 3 2 3 3 4 5 6 7 7 7 9 9 9 10 10 10 11
3 3 2 2 2 4 2 4 1 3 3 2 2 3 3 3 4 5 4 3 3 3 4 4 4 3 4 3 4 3 8 7 7 7 8 7 5 3 3 5 5 5 5 6 6 7 7 8 9 9 11 11 10 10
6 2 2 2 3 3 2 4 4 4 3 2 3 3 2 2 2 4 3 2 4 7 8 5 4 2 5 7 7 8 8 9 7 7 6 5 5 4 4 4 5 5 6 6 6 6 6 5 7 9 10 10 10 11
3 3 3 4 4 4 3 4 2 2 2 3 2 3 3 2 4 2 2 3 4 5 7 10 6 6 6 8 7 7 6 6 7 6 6 5 5 5 4 4 4 5 5 5 6 6 6 6 6 9 10 10 11 11
3 4 3 4 3 4 5 4 4 3 3 4 3 3 2 3 2 3 2 4 3 5 6 6 6 5 5 6 7 7 5 6 7 7 5 5 5 4 4 3 4 5 5 5 6 6 6 6 6 8 9 11 13 13
3 5 5 6 5 4 5 3 5 6 3 3 5 1 2 2 3 3 3 5 4 4 1 5 5 5 6 7 8 7 6 4 7 7 5 4 3 2 4 3 3 5 5 6 6 7 6 6 7 7 8 8 5 10
4 5 4 3 2 3 3 2 1 2 3 4 2 3 3 3 3 3 2 6 4 4 3 1 3 4 6 7 7 6 6 4 5 7 6 5 5 4 4 4 6 5 4 6 6 7 7 6 6 7 7 7 8 9
3 4 5 6 3 2 1 2 3 4 3 1 2 1 2 4 3 3 4 6 5 3 4 5 5 5 7 7 7 7 8 8 9 9 7 7 5 5 6 6 7 4 5 7 7 6 7 6 6 6 6 7 6 7
3 2 3 4 2 4 3 2 2 2 2 2 1 3 3 3 3 4 5 6 3 3 5 6 6 6 8 7 7 7 6 5 8 8 4 5 6 5 4 4 4 4 4 4 6 5 6 6 7 7 6 5 4 4
3 3 2 4 2 2 1 1 2 3 4 3 4 4 3 2 5 6 6 6 5 6 5 6 5 5 6 7 8 9 6 6 6 3 2 5 6 4 4 4 4 4 4 4 4 3 3 4 3 2 4 5 5 5
3 3 3 2 2 3 4 6 6 4 3 5 7 6 4 3 3 8 9 8 6 6 7 7 7 7 6 7 7 8 8 6 7 9 8 7 7 5 4 4 4 4 4 5 5 5 6 5 5 5 6 6 6 6
2 2 2 3 3 3 3 2 3 2 2 2 3 2 2 2 4 5 7 7 6 8 8 8 9 9 9 9 9 10 9 8 8 8 10 7 7 6 5 5 4 4 5 5 6 7 7 7 6 7 7 7 7 7
2 2 3 3 2 3 2 3 2 3 3 2 3 3 3 4 5 3 3 6 6 6 7 8 9 10 12 12 12 11 12 11 13 12 13 13 12 9 5 5 5 6 6 6 6 6 8 10 8 9 9 9 8 9
Wind_Direction
286 289 271 238 235 261 263 264 267 279 285 294 304 313 301 193 182 218 78 199 291 249 288 251 237 239 203 206 221 346 295 184 255 254 281 310 283 74 264 254 276 202 223 199 219 231 254 101 236 268 348 325 330 309
332 319 286 272 271 261 260 259 262 273 279 292 299 308 293 252 185 182 198 151 156 211 305 313 281 270 251 239 230 193 301 307 339 268 206 292 299 276 315 281 196 260 246 305 235 251 245 301 309 320 322 312 308 315
294 301 297 281 273 262 255 259 264 276 289 287 295 300 295 303 186 181 129 147 183 253 266 255 268 196 211 221 207 218 199 208 226 326 325 306 261 274 271 268 291 269 239 254 278 119 300 302 312 293 318 313 314 310
297 292 285 277 266 258 263 260 262 270 284 285 286 284 272 278 251 176 166 163 213 56 287 319 164 218 195 230 239 222 244 44 322 156 211 262 270 261 278 300 287 284 293 280 280 312 330 293 319 326 321 317 313 312
286 283 281 272 259 256 259 263 266 272 277 283 284 292 250 264 275 174 121 175 182 226 291 288 298 196 282 219 227 222 216 217 110 233 224 238 276 272 263 287 259 254 276 267 286 347 329 305 316 320 316 320 318 322
279 279 279 271 258 254 253 262 259 259 278 276 282 288 256 221 131 122 208 176 186 145 255 282 23 252 202 220 203 190 197 186 173 212 242 264 264 273 276 258 293 298 285 277 289 331 307 300 300 328 324 324 319 310
284 279 270 267 259 259 259 257 257 254 263 273 279 297 244 169 132 155 212 77 136 133 218 271 253 136 207 173 147 154 153 171 196 217 227 247 218 211 269 271 295 326 328 334 315 305 307 317 321 322 329 313 312 310
283 279 275 272 268 260 258 257 261 270 262 256 280 284 123 113 121 119 85 118 120 103 254 276 280 236 171 189 191 154 162 191 192 245 211 215 258 243 254 250 269 312 302 281 309 318 301 310 318 329 321 323 320 316
284 282 275 272 266 260 257 259 264 268 255 240 135 115 127 115 132 128 159 124 68 285 245 219 266 312 184 139 167 194 218 204 199 221 214 204 233 226 252 313 306 343 343 323 313 307 319 326 326 328 327 327 320 320
270 279 279 272 270 257 249 249 258 259 228 130 146 141 124 99 123 123 114 151 126 24 304 253 265 262 260 223 136 258 198 224 224 202 151 235 263 259 275 304 354 341 333 325 317 326 334 328 327 326 326 324 317 321
251 264 272 281 286 254 244 242 237 159 127 182 110 78 78 158 165 206 155 226 170 224 204 220 238 251 261 252 251 252 246 222 254 124 246 226 250 90 86 89 324 332 326 322 313 313 320 324 324 324 323 323 325 326
229 253 262 274 277 255 268 211 173 143 138 126 108 106 114 172 164 220 209 167 219 240 181 221 188 205 234 323 228 219 246 209 260 128 235 239 97 64 145 319 326 331 334 325 317 319 324 325 328 324 326 327 329 332
228 242 252 260 265 243 242 187 151 126 117 72 80 121 185 150 196 219 195 194 209 195 185 193 188 189 171 196 228 237 234 215 155 212 232 290 78 24 324 340 335 337 335 332 328 330 328 332 333 334 330 330 330 337
245 250 260 258 258 257 230 175 156 149 126 125 154 180 222 180 228 201 236 7 80 197 91 163 345 228 212 190 242 245 177 180 232 217 200 103 56 48 5 358 347 353 351 345 344 339 342 340 335 335 338 331 340 341
250 254 261 259 241 230 218 173 157 140 139 173 188 220 214 241 199 204 248 228 176 67 138 175 198 241 201 245 236 271 228 245 256 353 42 65 65 32 39 12 6 358 355 354 350 349 348 343 339 340 337 338 348 346
239 256 227 202 212 219 197 168 125 136 146 181 221 247 247 240 218 207 220 229 194 136 166 208 229 219 201 224 217 226 240 239 309 36 80 107 92 82 38 19 11 4 356 353 350 347 344 343 340 337 337 346 349 357
231 234 201 203 205 192 147 114 138 167 202 207 229 235 266 273 258 253 252 246 134 158 196 209 217 216 124 218 216 177 222 250 139 118 103 99 104 73 44 32 10 5 358 354 348 351 347 348 346 350 345 353 350 4
228 210 206 199 185 109 82 93 118 200 208 209 223 224 209 248 265 233 212 154 154 186 190 227 272 217 208 193 191 192 183 119 116 127 124 126 119 84 43 27 12 7 359 358 351 349 12 355 359 350 351 353 353 7
223 219 214 167 134 109 132 161 157 213 225 205 236 248 239 246 239 257 221 160 131 147 216 227 230 216 184 199 274 151 144 156 148 143 127 133 125 101 54 17 7 6 359 359 3 355 14 11 3 353 356 360 359 7
243 224 191 154 124 114 136 164 224 230 214 223 234 235 221 245 244 217 207 181 155 172 205 228 245 207 163 182 344 3 134 142 145 151 151 151 144 140 56 15 18 352 350 358 17 22 9 10 10 358 12 10 3 7
145 131 137 118 104 114 167 164 178 226 237 231 275 242 241 229 236 225 221 168 183 197 219 226 233 201 49 360 332 156 145 158 163 156 139 146 152 123 81 43 14 30 6 10 5 20 5 18 360 6 10 16 9 20
90 107 98 66 117 164 206 212 241 149 213 251 248 199 230 241 230 198 142 183 210 201 218 231 179 199 212 184 144 154 131 138 106 98 93 116 141 132 66 30 15 17 31 24 11 7 21 16 4 8 14 10 13 24
106 63 116 161 174 190 141 166 198 193 217 209 187 222 212 216 203 143 201 218 221 208 200 197 215 262 119 120 120 123 136 143 131 119 126 104 98 92 77 50 35 18 21 25 6 15 19 8 29 6 14 16 14 18
130 153 175 178 193 164 174 181 202 227 218 227 203 231 213 172 146 201 228 193 242 162 182 173 188 151 139 145 131 126 132 119 116 119 124 128 115 92 66 63 46 48 15 9 6 12 22 21 7 24 22 15 20 21
153 162 184 173 188 186 201 182 191 215 237 200 223 220 199 184 176 200 174 86 125 156 142 181 179 179 160 127 120 113 144 149 140 129 120 98 99 119 113 89 66 40 12 11 17 12 17 16 24 23 33 25 8 26
188 171 196 193 157 219 199 202 197 207 198 213 214 211 225 190 184 115 67 35 23 40 137 181 191 162 147 146 140 141 132 118 125 124 126 121 90 81 105 97 104 86 22 8 6 359 14 12 23 18 26 39 29 19
188 189 183 247 227 136 213 266 158 193 217 223 165 195 201 170 97 61 49 45 0 2 329 204 170 162 137 119 101 108 118 111 91 108 109 90 72 48 50 61 70 57 33 12 6 3 357 2 14 15 19 36 33 28
235 198 194 175 200 172 195 234 210 222 199 132 217 133 49 28 62 349 348 352 339 336 83 66 49 82 102 110 116 119 110 110 113 116 109 99 89 82 81 78 72 33 52 30 356 8 357 358 4 15 17 21 28 27
214 176 155 157 192 194 209 228 207 251 39 54 43 76 84 63 356 343 325 319 294 134 108 95 92 101 99 98 99 106 124 141 148 158 124 117 146 107 94 90 79 55 28 56 105 31 14 358 357 358 5 6 6 27
168 167 169 147 214 197 49 179 34 55 58 76 98 106 90 78 33 6 8 22 52 71 75 95 117 120 117 116 111 97 71 58 42 37 95 98 89 84 81 71 58 45 27 17 10 48 196 247 192 249 359 17 19 5
151 201 130 124 85 64 81 77 64 58 61 64 69 91 100 129 122 46 24 359 25 56 75 75 66 64 86 107 119 124 99 67 67 72 92 108 108 95 75 54 39 28 22 20 18 20 6 12 14 15 26 27 30 8
175 155 135 109 104 102 93 52 63 69 89 72 77 91 116 91 70 53 13 2 41 65 39 65 75 74 75 80 76 71 68 88 82 74 78 78 74 65 60 50 45 32 25 30 31 26 18 20 21 17 14 14 15 16
89 78 72 104 118 118 93 109 100 101 78 78 71 66 55 52 75 57 56 31 28 53 67 73 78 79 82 84 89 86 78 76 70 65 63 54 39 20 33 36 34 24 25 30 36 41 35 27 27 18 13 7 7 7